Regional Weather Roundup
Issued by NWS

Home | Current Version | Previous Version | Text Only | Print | Product List | Glossary On
Versions: 1 2 3 4 5 6 7 8 9 10 11 12 13 14 15 16 17 18 19 20 21 22 23 24 25 26 27 28 29 30 31 32 33 34 35 36 37 38 39 40 41 42 43 44 45 46 47 48 49 50
000
ASUS44 KFWD 051610
RWRTX
NORTH TEXAS HOURLY WEATHER ROUNDUP
NATIONAL WEATHER SERVICE FORT WORTH TX
1000 AM CST THU MAR 05 2015

NOTE: "FAIR" INDICATES FEW OR NO CLOUDS BELOW 12,000 FEET WITH NO
SIGNIFICANT WEATHER AND/OR OBSTRUCTIONS TO VISIBILITY.

TXZ118-119-051700-
DALLAS/FORT WORTH METROPLEX

CITY           SKY/WX    TMP DP  RH WIND       PRES   REMARKS
DFW AIRPORT    MOSUNNY   29  14  53 N16       30.60R WCI  17
DALLAS LOVE    MOSUNNY   30  18  60 N10       30.61R WCI  21
FTW MEACHAM    SUNNY     29  16  58 N14       30.61R WCI  18
DAL-EXECUTIVE  SUNNY     29  17  61 NE15      30.59R WCI  18
FTW-ALLIANCE   MOSUNNY   28  16  60 N13       30.61R WCI  17
FTW-SPINKS     SUNNY     28  18  64 N12G21    30.62R WCI  18
ARLINGTON      SUNNY     31  17  56 N14       30.60R WCI  21
GRAND PRAIRIE  SUNNY     27  19  74 N9        30.62R WCI  17
ADDISON        SUNNY     27  18  69 N9G15     30.62R WCI  17
MESQUITE       SUNNY     28  18  64 N14G22    30.61R WCI  17
LANCASTER      SUNNY     29  16  58 N13       30.61R WCI  19
$$

TXZ091>094-102>105-117-120-121-131>134-051700-
NORTH CENTRAL TEXAS

CITY           SKY/WX    TMP DP  RH WIND       PRES   REMARKS
SHRMAN/DENISON SUNNY     30  20  67 N13       30.62R WCI  20
GAINESVILLE    SUNNY     27  15  59 N8        30.63R WCI  19
BOWIE          SUNNY     28  16  60 N6        30.61R WCI  22
BRIDGEPORT     SUNNY     29  18  62 N9        30.65R WCI  21
DECATUR        SUNNY     29  15  56 N7        30.60R WCI  22
DENTON         SUNNY     27  15  61 N15       30.62R WCI  15
MCKINNEY       SUNNY     28  18  66 N12       30.61R WCI  18
GREENVILLE     SUNNY     30  21  69 N9        30.60R WCI  22
TERRELL        SUNNY     30  21  69 N17       30.60R WCI  18
WAXAHACHIE     SUNNY     29  20  68 N14G21    30.60R WCI  18
CLEBURNE       SUNNY     28  18  64 CALM      30.61R
GRANBURY       SUNNY     31  18  56 N12       30.63R WCI  22
$$

TXZ083>090-098>101-113>116-127>130-139>142-154-155-051700-
WESTERN NORTH TEXAS

CITY           SKY/WX    TMP DP  RH WIND       PRES   REMARKS
WICHITA FALLS  SUNNY     30  18  60 N5        30.63R WCI  25
WF-KICKAPOO    SUNNY     30  19  63 N5        30.65R WCI  25
VERNON           N/A     26  14  61 W3        30.63R
ABILENE        SUNNY     27  17  66 N12       30.61R WCI  17
ABILENE-DYESS  SUNNY     28  16  60 N6        30.60R WCI  22
BRECKENRIDGE   SUNNY     31  17  56 N7        30.62R WCI  24
GRAHAM         SUNNY     30  20  66 N7        30.62R WCI  23
MINERAL WELLS  SUNNY     29  17  61 N9        30.61R WCI  20
STEPHENVILLE   SUNNY     29  18  63 N13G21    30.61R WCI  19
COMANCHE       SUNNY     29  21  72 NE17      30.60R WCI  17
BROWNWOOD      SUNNY     30  16  55 N14G21    30.60R WCI  20
COLEMAN          N/A     30  20  65 N16       30.59R WCI  19
BRADY          SUNNY     28  21  74 N10       30.56R WCI  19
$$

TXZ143>147-156>162-174-175-051700-
CENTRAL TEXAS

CITY           SKY/WX    TMP DP  RH WIND       PRES   REMARKS
WACO           SUNNY     30  22  72 N18       30.59R WCI  18
WACO-MCGREGOR  SUNNY     28  21  74 N20G25    30.59R WCI  15
HILLSBORO      SUNNY     30  21  70 N13G25    30.58R WCI  20
CORSICANA      SUNNY     30  24  78 MISG      30.58R
MEXIA          PTSUNNY   29  24  84 MISG      30.55R
HEARNE         CLOUDY    32  26  78 N22       30.56R WCI  19
CAMERON        MOSUNNY   34  26  75 N17G26    30.55R WCI  23
TEMPLE         SUNNY     32  21  64 N23G29    30.56R WCI  19
KILLEEN        SUNNY     30  24  77 N18G26    30.56R WCI  18
KILLEEN-SKYLRK SUNNY     32  19  59 N17G25    30.55R WCI  21
FORT HOOD      SUNNY     30  24  76 N20G30    30.55R WCI  18
GATESVILLE     SUNNY     30  23  74 CALM      30.61R
HAMILTON       SUNNY     30  19  63 N18G24    30.59R WCI  18
LAMPASAS       SUNNY     30  25  81 N13G18    30.56R WCI  20
$$

TXZ095>097-106>112-122>126-135>138-148>153-164>167-051700-
EAST TEXAS

CITY           SKY/WX    TMP DP  RH WIND       PRES   REMARKS
PARIS          SUNNY     27  19  74 CALM      30.60R
SULPHUR SPRNGS SUNNY     29  22  75 N13       30.61R WCI  19
MOUNT PLEASANT SUNNY     32  21  63 NE13G18   30.59R WCI  22
GILMER         MOSUNNY   30  19  65 N13G23    30.56R WCI  20
MINEOLA        MOSUNNY   32  27  80 NE6       30.58R WCI  26
TYLER          CLOUDY    31  24  75 NE14G25   30.54R WCI  21
LONGVIEW       PTSUNNY   32  22  66 NE16G26   30.55R WCI  21
MARSHALL       PTSUNNY   28  20  70 N7G23     30.57S WCI  21
ATHENS         CLOUDY    28  23  80 NE17      30.56R WCI  16
PALESTINE      CLOUDY    31  27  86 N14G23    30.55R WCI  21
JACKSONVILLE   CLOUDY    30  28  94 N13G18    30.53R WCI  20
HENDERSON      CLOUDY    31  25  80 N17G24    30.55R WCI  19
NACOGDOCHES    CLOUDY    30  21  69 NE16G24   30.52R WCI  19
LUFKIN         CLOUDY    35  25  66 N14G28    30.50R WCI  26
$$

SUPPLEMENTAL OBSERVATIONS (CENTRAL)

CITY           SKY/WX    TMP DP  RH WIND       PRES   REMARKS
$$

SUPPLEMENTAL OBSERVATIONS (WEST)

CITY           SKY/WX    TMP DP  RH WIND       PRES   REMARKS
$$

SUPPLEMENTAL OBSERVATIONS (EAST)

CITY           SKY/WX    TMP DP  RH WIND       PRES   REMARKS
$$

SUPPLEMENTAL OBSERVATIONS ARE A COLLECTION OF AUTOMATED INSTRUMENTS
THAT ARE MAINTAINED BY A VARIETY OF FEDERAL AND STATE AGENCIES.
CERTAIN ELEMENTS...SUCH AS HUMIDITY VALUES AND SUSTAINED WIND
SPEEDS...MAY BE APPROXIMATED.



USA.gov is the U.S. government's official web portal to all federal, state and local government web resources and services.